Theta_e
298 296 293 295 296 295 293 292 292 295 298 295 297 297 300 303 303 303 304 306 307 309 312 313 314 315 317 322 323 330 338 347 347 345 343 344 343 345 345 348 350 349 349 348
296 293 298 297 295 294 293 292 292 295 298 296 297 296 300 301 302 304 304 306 307 309 310 312 315 316 316 321 325 326 332 343 346 346 347 347 347 347 347 347 348 349 349 350
294 296 296 295 294 293 293 292 292 292 297 297 295 294 297 300 301 303 305 306 307 307 308 311 313 315 316 317 323 326 330 338 344 348 348 343 347 345 345 346 347 348 349 350
295 299 295 294 293 295 291 296 295 294 292 289 295 286 295 299 299 302 304 306 306 307 309 310 310 313 315 316 318 323 328 332 339 347 345 344 342 340 343 346 348 350 350 349
294 294 293 293 294 295 293 296 295 295 293 292 292 289 293 296 296 300 303 305 307 306 307 307 309 312 314 316 317 321 325 329 335 343 346 345 345 345 345 347 350 349 349 349
296 299 297 297 297 297 298 296 296 293 291 285 291 290 291 295 297 300 302 303 306 307 309 310 311 313 314 317 318 319 321 327 329 337 342 346 346 344 336 338 340 342 344 346
295 296 299 298 295 299 297 293 286 285 285 285 294 290 293 298 300 301 301 304 306 307 308 309 309 309 314 318 319 320 320 321 325 328 336 341 345 343 339 336 337 335 333 333
289 288 294 298 296 295 295 293 287 281 283 286 293 287 293 300 301 303 304 305 305 305 307 308 310 311 312 315 319 319 320 321 323 324 329 336 338 338 338 336 334 332 331 333
290 289 297 298 299 297 294 290 296 290 291 286 289 293 298 300 300 301 302 303 303 304 306 307 309 312 313 314 316 318 318 320 322 323 328 332 333 333 331 333 332 330 331 328
295 289 296 298 299 300 296 298 289 290 282 281 287 289 290 296 297 299 300 301 302 304 305 307 309 311 313 314 315 316 317 318 319 322 325 327 327 327 327 327 326 327 327 328
296 292 292 296 293 293 294 292 293 292 290 283 283 288 298 297 298 297 299 300 302 304 306 308 310 311 311 313 313 314 316 317 319 319 321 321 320 320 321 323 325 327 329 329
296 293 288 290 297 299 296 293 293 287 286 288 288 288 298 299 298 299 300 302 304 304 306 309 309 309 310 310 311 311 313 312 315 319 320 320 321 321 322 322 323 326 328 329
295 290 285 287 292 295 292 294 294 292 288 286 284 288 298 299 299 300 300 302 302 303 306 307 308 308 308 308 308 307 308 311 314 314 317 319 320 321 322 324 325 326 325 328
296 291 288 284 287 291 288 290 291 289 285 286 287 289 293 295 295 298 301 302 302 301 302 303 306 307 307 307 307 307 307 307 309 310 313 315 317 318 317 320 322 325 324 325
293 286 288 289 290 290 288 288 289 286 288 283 286 287 291 294 296 299 300 300 299 299 299 300 303 304 304 304 305 305 304 306 308 308 309 311 315 316 317 316 320 323 324 324
295 287 288 286 289 288 286 288 288 288 288 288 289 288 296 298 298 297 297 297 297 298 298 299 301 302 301 302 303 303 303 303 305 305 306 309 310 313 314 317 318 320 320 322
290 288 285 281 287 286 283 288 288 289 291 290 287 293 297 297 297 296 296 296 296 297 297 298 299 300 301 301 302 302 302 303 303 304 305 305 308 309 311 314 315 318 319 322
289 287 286 282 285 276 289 296 294 291 294 296 296 297 298 296 296 296 298 296 296 297 297 298 299 300 301 302 302 304 302 303 302 303 303 303 304 306 308 310 312 316 318 320
292 288 283 281 282 286 288 293 292 290 290 296 295 296 295 296 295 296 300 299 296 297 298 299 300 301 302 301 301 302 302 302 301 301 301 302 303 304 306 307 311 314 315 316
291 291 285 283 279 278 288 295 296 295 286 294 294 294 294 293 286 292 298 298 297 298 298 298 299 300 300 300 302 300 300 300 300 300 301 302 303 303 304 306 308 312 313 314
284 285 282 282 282 286 293 295 296 284 287 295 295 294 293 290 292 295 297 297 298 299 299 298 298 297 297 299 300 298 297 297 300 301 301 302 303 303 305 306 307 308 310 312
286 284 283 284 281 280 296 294 289 294 296 296 295 295 293 294 293 293 294 295 296 296 297 297 296 297 297 299 297 296 296 299 300 300 300 300 301 302 302 303 303 305 307 308
286 290 287 289 289 294 297 296 298 297 295 295 295 294 294 293 293 294 294 294 295 296 295 295 295 295 296 297 297 296 297 299 299 299 299 300 302 302 303 302 303 303 305 304
291 294 291 290 292 294 295 297 297 298 296 296 296 295 295 293 294 293 294 294 295 294 293 293 294 292 293 295 295 296 297 298 297 296 297 298 298 299 300 301 301 300 301 302
290 292 290 291 294 294 295 297 296 295 296 295 295 295 294 294 293 294 293 294 294 293 292 292 292 291 292 294 294 296 296 297 295 296 296 297 297 298 298 299 299 299 300 301
293 291 289 289 294 292 294 296 297 295 295 295 294 294 295 295 294 294 293 294 293 291 290 291 291 291 292 292 293 294 296 296 295 294 295 296 297 298 298 298 299 297 297 297
Wind_Speed
2 7 11 11 9 5 3 5 9 11 11 7 13 13 13 15 11 12 13 11 10 10 8 8 6 5 8 10 10 12 12 14 10 11 12 11 13 12 12 12 15 16 13 11
4 11 12 7 6 8 7 10 11 11 8 8 13 14 13 12 11 14 14 12 13 11 11 11 11 8 7 8 9 10 13 13 13 11 10 8 10 10 10 10 12 14 13 12
11 4 6 9 9 9 9 11 8 11 11 7 11 16 12 10 7 11 14 15 13 14 15 14 12 12 11 10 12 12 12 13 14 15 9 5 5 4 9 10 12 14 15 14
9 11 12 9 10 9 13 9 14 12 11 13 3 14 17 13 13 15 16 14 15 15 13 12 15 14 13 13 9 10 12 13 13 16 14 16 13 13 12 13 12 13 15 15
4 4 5 9 14 11 10 5 8 11 12 12 15 16 8 5 10 14 14 16 12 11 11 14 15 15 15 11 11 10 10 12 14 15 17 14 15 12 8 9 12 12 11 12
13 2 4 6 2 13 3 11 11 4 6 13 15 16 10 12 16 10 7 5 7 9 11 12 14 13 12 13 12 12 12 13 13 16 19 19 19 15 12 10 10 9 7 8
12 17 14 8 14 14 12 11 8 10 11 16 12 15 13 8 10 9 8 6 9 10 12 14 15 14 11 12 12 11 13 16 14 17 19 20 18 15 12 12 10 10 8 8
7 9 4 5 11 11 8 8 9 15 14 17 8 10 7 6 4 4 3 4 10 13 12 11 12 11 12 12 13 13 14 17 15 16 19 17 16 9 8 9 8 7 7 8
4 6 3 1 1 1 4 10 11 19 19 14 13 15 10 8 4 1 3 8 13 16 17 16 15 12 12 13 12 11 12 14 13 14 14 13 13 12 11 10 7 8 7 7
7 14 8 11 5 9 9 4 8 5 9 16 10 9 8 10 4 5 8 14 16 17 16 17 15 17 14 11 11 8 6 8 9 8 7 6 6 8 9 10 12 11 10 11
6 5 8 6 8 14 13 15 15 7 9 8 15 9 2 5 6 9 13 14 16 17 16 16 15 13 12 14 12 10 8 9 8 7 7 6 2 2 4 5 8 12 12 12
5 5 8 14 12 16 15 16 10 5 6 6 10 11 4 6 7 10 11 11 11 14 14 12 10 10 9 12 13 13 12 13 10 10 9 9 8 7 7 8 8 6 9 10
3 5 5 5 5 2 5 6 7 6 2 8 9 5 5 6 16 16 12 9 9 11 11 11 9 9 10 11 12 11 12 13 12 10 8 9 11 9 8 9 11 10 10 11
2 5 11 13 16 3 4 3 5 3 4 5 8 19 18 16 12 11 9 10 11 13 13 12 10 10 10 11 11 11 12 12 14 13 10 10 10 6 8 11 11 13 11 13
4 4 8 13 14 13 15 19 17 16 17 14 21 22 20 16 9 9 11 11 14 17 16 14 12 12 12 13 13 13 11 13 14 14 12 10 9 6 8 14 14 13 12 14
7 5 3 9 13 15 19 21 22 21 20 21 20 24 11 4 6 10 11 13 17 17 15 15 13 15 16 15 15 15 15 14 14 15 15 14 13 10 10 10 10 13 15 16
5 5 3 7 8 13 14 9 14 15 12 9 13 12 4 10 12 13 16 16 18 17 17 17 17 17 18 18 16 16 15 14 16 16 16 15 15 14 13 12 11 12 13 13
14 12 7 7 8 7 3 2 3 3 8 9 13 12 9 11 13 17 18 16 16 17 21 23 20 19 18 18 21 19 18 17 17 17 17 16 17 17 16 16 15 13 11 13
18 13 4 4 6 11 6 3 2 3 7 10 12 9 11 14 18 18 17 15 16 21 22 21 22 22 21 22 21 21 19 19 19 19 19 18 18 18 17 18 16 14 13 13
9 12 6 4 5 5 2 6 1 1 9 4 5 10 14 16 14 15 20 22 25 25 18 19 20 20 22 22 18 17 19 22 22 22 20 19 18 18 18 18 17 15 15 15
5 4 11 9 5 6 2 1 2 5 5 8 12 16 18 17 17 24 24 24 24 24 25 21 20 22 20 17 21 22 20 22 21 19 19 18 18 18 17 16 16 15 15 15
2 6 4 5 7 5 1 2 4 8 11 13 16 19 20 18 20 22 22 23 26 23 20 22 22 16 17 23 20 21 20 19 19 19 19 20 19 16 15 18 17 18 17 16
3 2 3 4 3 1 1 6 8 5 13 18 18 19 18 20 22 25 23 20 22 19 17 22 17 19 20 20 16 18 21 20 19 19 20 19 20 18 17 17 18 15 17 16
1 0 4 5 2 2 10 3 5 13 17 18 20 19 18 22 22 21 20 20 18 16 21 19 17 20 21 19 20 18 17 17 17 18 18 17 17 17 16 13 13 13 13 13
6 5 5 8 8 11 2 10 14 17 17 19 17 20 22 22 21 22 20 22 17 15 18 16 17 17 21 18 19 19 17 16 17 18 17 16 14 16 15 15 13 13 15 15
3 1 2 3 7 5 13 14 17 17 20 19 21 22 21 23 22 21 21 19 14 17 18 17 19 19 19 18 19 18 17 17 17 17 14 14 13 14 14 14 14 26 26 23
Wind_Direction
84 217 222 222 217 237 243 259 272 275 278 283 278 283 280 285 290 276 283 272 265 265 276 288 269 240 264 277 263 238 229 223 212 210 207 206 209 206 210 216 217 214 216 210
204 244 242 223 206 218 233 265 273 278 274 208 288 283 283 271 266 266 268 269 257 266 275 280 285 287 260 266 270 258 232 225 214 217 220 227 207 212 215 211 214 213 213 211
232 236 99 205 216 226 231 246 258 266 301 242 276 278 264 261 244 259 251 253 271 269 275 279 281 294 291 253 237 237 240 228 219 218 211 201 175 178 194 208 215 216 213 207
250 265 244 232 243 222 264 230 252 272 292 288 350 287 278 276 259 247 258 257 258 264 277 285 299 295 284 275 270 246 241 234 224 211 209 211 214 207 208 204 207 202 202 203
213 196 174 211 244 180 256 182 245 271 272 284 272 272 265 227 251 255 257 266 293 322 321 307 298 290 287 270 272 270 249 237 230 217 216 210 221 225 214 208 202 205 195 199
263 217 244 261 224 201 275 291 285 256 272 252 261 251 262 256 258 276 265 318 349 343 338 331 308 295 289 296 288 281 263 250 233 220 220 215 214 213 207 199 200 198 186 192
260 252 254 247 270 255 251 263 274 260 241 269 283 263 269 262 233 253 296 341 355 343 345 343 342 322 315 314 311 304 285 265 248 235 226 220 218 209 200 182 184 169 180 191
268 270 213 172 219 261 228 229 253 271 278 283 247 254 249 233 272 113 108 359 348 345 347 338 339 348 338 325 322 314 296 282 271 246 235 220 204 191 190 174 174 192 203 210
279 241 297 330 30 217 249 244 281 270 269 269 246 261 258 235 218 329 17 0 350 340 334 337 340 333 340 342 325 311 306 295 285 260 240 214 196 185 189 182 181 196 200 209
256 279 253 270 305 250 238 337 267 231 277 266 246 256 259 256 196 12 348 343 341 340 336 337 334 332 327 337 331 310 300 307 303 286 257 217 193 204 194 177 182 187 182 192
316 259 245 304 239 266 277 254 241 287 269 272 283 270 55 129 73 355 344 346 347 345 334 330 330 331 329 337 354 343 330 303 292 252 257 251 169 268 265 233 217 193 176 180
344 300 256 253 267 276 282 265 234 228 201 240 280 268 100 90 3 354 348 345 341 339 328 328 347 358 359 17 15 15 0 342 330 287 257 227 215 195 223 230 246 249 230 189
352 221 276 253 222 102 263 288 282 253 170 220 250 260 145 279 326 335 336 331 326 330 337 333 336 355 0 2 360 3 4 5 354 344 285 253 217 187 216 244 250 230 238 224
1 251 252 266 292 263 263 242 257 214 249 276 257 283 286 300 305 304 310 318 321 323 319 322 324 334 336 336 339 342 343 354 340 344 344 317 305 325 312 275 253 242 213 230
207 242 250 271 275 267 265 264 256 246 254 259 280 283 291 305 296 296 302 305 311 318 322 321 315 319 322 323 325 323 327 332 319 322 323 318 317 289 240 246 248 248 231 228
186 271 253 276 276 272 278 269 259 257 264 266 271 276 307 260 268 283 298 305 309 314 316 313 306 308 311 311 308 309 308 310 316 307 304 302 296 281 254 246 238 238 237 233
209 243 252 268 313 311 279 275 254 251 246 258 261 290 278 285 294 306 307 308 306 307 308 305 300 297 300 302 303 293 291 297 297 286 288 289 286 284 280 271 256 246 242 236
245 239 234 276 306 255 44 32 40 253 264 253 266 279 284 299 307 305 303 297 294 301 307 303 299 295 294 295 300 291 279 285 288 280 279 280 278 272 269 264 258 252 241 237
224 218 215 226 224 293 261 203 288 330 286 279 284 292 295 312 311 290 306 309 298 305 302 298 296 292 293 293 293 282 277 282 281 282 281 281 274 270 267 265 264 258 253 243
161 194 209 179 241 257 88 148 48 256 278 97 321 303 313 320 292 297 319 306 301 300 296 295 291 297 293 286 283 286 284 276 273 278 272 271 267 266 265 264 260 257 249 250
146 175 212 216 256 277 115 99 289 263 11 309 311 307 301 289 283 298 295 296 294 298 297 296 288 288 280 284 283 279 279 274 269 270 269 267 264 258 258 263 260 257 249 245
250 187 183 201 216 243 83 262 267 340 315 311 304 302 302 296 293 295 297 295 293 294 297 299 295 281 280 286 283 276 271 274 272 269 269 267 263 258 258 255 249 246 245 245
241 316 310 242 311 63 293 286 300 316 309 310 306 309 302 300 299 299 296 299 293 297 298 301 289 290 288 283 276 273 274 277 276 273 269 264 261 257 253 251 250 244 234 234
235 308 264 307 114 288 311 295 243 318 315 314 307 302 297 299 298 295 295 293 294 293 306 301 290 290 281 284 283 276 277 274 270 265 262 260 255 252 247 243 239 237 236 235
277 300 279 266 282 309 218 318 322 317 313 311 302 305 306 302 300 300 301 298 291 300 302 292 285 282 281 284 280 278 274 271 268 265 262 258 254 250 247 242 239 236 233 227
215 216 236 299 329 274 297 314 316 311 311 312 314 310 305 304 304 299 298 300 305 299 298 292 291 286 286 285 279 279 279 275 269 267 262 254 250 246 241 240 238 227 227 225